World of Logs combat log analyzer allows gamers to save, share and analyze their raiding experiences conveniently and thoroughly in the Blizzard MMO World of Warcraft. If you're new here, make sure you check out the tour for a 1 minute introduction. If you have any questions, we're happy to answer them on the forums.

DPS HPS
Odyn
Helya
Guarm
Reports for Cho'gall - statistics
# Date Time Damage DPS Guild Realm
1 02 Feb 2012 00:44 72.89M 1625870.7 Dreadnaut US-Echo Isles
2 24 Aug 2012 02:50 63.16M 370321.1 Warriór Logs US-Turalyon
3 24 Aug 2012 02:50 63.29M 371084.5 CHEESY OMELETS GOES HARDDDDDD US-Turalyon
4 29 Jun 2012 02:59 59.99M 334368.9 Piter FM EU-Свежеватель Душ
5 27 Aug 2012 03:03 59.49M 324277.6 Созвездие EU-Вечная Песня
6 04 Aug 2012 03:04 59.29M 321953.1 TakkaZJ US-Zul'jin
7 30 Jul 2012 03:06 59.57M 318934.5 Hostile EU-Blackhand
8 06 Aug 2012 03:07 61.19M 326789.4 Sparks EU-The Maelstrom
9 15 Aug 2012 03:07 58.97M 313681.4 Raidasyl [Gummieulenbande] EU-Blackrock
10 24 May 2012 03:09 60.30M 318076.3 Piter FM EU-Свежеватель Душ
11 09 Aug 2012 03:13 60.95M 314222.6 Avast US-Frostmourne
12 31 Jul 2012 03:14 62.45M 321502.3 Sparks EU-The Maelstrom
13 27 Apr 2012 03:16 63.01M 320717.6 Get Well Soon US-Korgath
14 20 Sep 2011 03:16 35.99M 182738.4 Kult der Schattenflamme EU-Der Rat von Dalaran
15 20 Mar 2012 03:17 61.96M 313093.4 Logs of sexy shadow priest EU-Черный Шрам
16 07 Mar 2012 03:18 63.08M 317049.8 Phoenix Song EU-Гром
17 26 Jun 2012 03:20 61.48M 306760.9 Away US-Stormreaver
18 08 Jun 2012 03:21 59.73M 296932.3 Фаэтон EU-Ясеневый лес
19 26 Aug 2012 03:21 61.09M 302775.1 Vital US-Uldaman
20 02 Jul 2012 03:21 59.48M 294523.3 Фаэтон EU-Ясеневый лес
21 25 Aug 2012 03:22 60.89M 300955.0 Боцбоц EU-Свежеватель Душ
22 01 Feb 2012 03:22 63.92M 315916.4 Lymi Logs US-Turalyon
23 25 Aug 2012 03:22 61.04M 301521.3 Логи дяди Дили EU-Ревущий фьорд
24 18 Aug 2012 03:22 61.23M 302464.3 Gaara EU-Ревущий фьорд
25 16 Jul 2012 03:23 62.00M 305013.9 Avalon Tarde EU-Exodar
26 25 Apr 2012 03:24 61.98M 303354.9 piss US-Mal'Ganis
27 26 Aug 2012 03:25 63.35M 308091.9 Avast US-Frostmourne
28 13 Jun 2012 03:26 37.59M 181914.1 Апофеоз EU-Разувий
29 21 Jul 2012 03:28 61.82M 295986.9 Hostile EU-Blackhand
30 20 Apr 2012 03:29 63.44M 302703.0 ScrubBusters EU-The Maelstrom
31 02 Jul 2012 03:30 62.96M 299113.6 Harbinger EU-Wrathbringer
32 09 Jul 2012 03:30 60.93M 288788.7 Hostile EU-Blackhand
33 25 Jul 2012 03:31 62.41M 294878.2 Malgann EU-Sunstrider
34 16 Feb 2012 03:32 59.95M 282146.1 Alucard Privat Log EU-Nera'thor
35 20 Aug 2012 03:32 62.55M 293899.9 Cool Whip US-Caelestrasz
36 19 Aug 2012 03:33 62.41M 292258.4 Бич с ЧШ EU-Король-лич
37 19 Aug 2012 03:33 62.34M 291902.4 "М И Б" 87 EU-Черный Шрам
38 10 Jul 2012 03:33 62.70M 293522.2 Malgann EU-Sunstrider
39 29 Jul 2012 03:34 62.90M 293379.6 Ara's Guild US-Barthilas
40 17 Aug 2012 03:36 62.05M 286902.3 Nyxin's logs EU-Archimonde
41 07 Jul 2012 03:36 63.17M 291757.5 No Comment EU-Chamber of Aspects
42 21 Jun 2012 03:36 62.71M 289597.2 Рассвет EU-Пиратская бухта
43 11 Jul 2012 03:36 63.31M 292203.1 ΣXILΣ EU-Ревущий фьорд
44 20 Jun 2012 03:37 62.21M 285837.6 Kill it Please US-Frostmourne
45 01 May 2012 03:37 61.90M 284346.9 Pure EU-Turalyon
46 27 Feb 2012 03:37 59.62M 273579.8 Twenty Percent Cooler EU-The Maelstrom
47 21 May 2012 03:39 61.52M 280689.9 Duality US-Zul'jin
48 03 May 2012 03:39 62.21M 283251.6 Almost Famous [Jadetea Logs] EU-Auchindoun
49 21 May 2012 03:40 65.02M 295387.0 Avalon Tarde EU-Exodar
50 12 Aug 2012 03:40 63.50M 288440.4 Dark sein account EU-Die ewige Wacht
51 21 Apr 2012 03:40 65.71M 298167.7 Lamdeeze log US-Magtheridon
52 04 Aug 2012 03:40 65.03M 295020.3 Midwinter US-Sargeras
53 16 Jul 2012 03:41 62.42M 282418.6 Разбавили водой EU-Азурегос
54 25 Apr 2012 03:41 63.21M 285556.5 Coon and friends US-Stormrage
55 18 Mar 2012 03:41 63.58M 287251.1 Интервенция EU-Свежеватель Душ
56 25 Apr 2012 03:41 63.21M 285365.8 DreamON! US-Area 52
57 20 Mar 2012 03:41 60.46M 272906.6 Duality US-Zul'jin
58 12 Apr 2012 03:41 64.23M 289385.9 Kinetic US-Frostmane
59 01 Jul 2012 03:42 60.53M 271932.9 Despotism US-Greymane
60 01 Aug 2012 03:42 64.82M 291148.6 M&M`s EU-Свежеватель Душ
61 02 Mar 2012 03:42 62.68M 281352.7 ScrubBusters EU-The Maelstrom
62 27 Mar 2012 03:42 61.74M 277125.1 Duality US-Zul'jin
63 02 Apr 2012 03:42 63.92M 286756.6 Лесько Logs EU-Свежеватель Душ
64 21 Mar 2012 03:42 60.84M 272901.6 Бомжи с берсерка (10) EU-Ревущий фьорд
65 02 Aug 2012 03:43 63.65M 285115.7 Divide US-Zul'jin
66 06 Aug 2012 03:43 64.42M 288172.2 Бич с ЧШ EU-Король-лич
67 09 Jul 2012 03:43 63.93M 285975.9 Sparks EU-The Maelstrom
68 05 Apr 2012 03:43 63.34M 283314.7 Лесько Logs EU-Свежеватель Душ
69 09 Jul 2012 03:43 63.92M 285870.0 Nightcraft EU-Frostmane
70 06 Jul 2012 03:43 62.23M 277898.9 GDKP Infinitum EU-Neptulon
71 06 Jul 2012 03:43 62.34M 278374.2 Bio's Logs EU-Silvermoon
72 11 Apr 2012 03:44 61.63M 275028.8 Predicted EU-Festung der Stürme
73 19 Aug 2012 03:44 65.00M 289869.9 Revqt US-Thrall
74 18 Aug 2012 03:44 65.00M 289880.3 Intent LiveLogs US-Kel'Thuzad
75 25 Jun 2012 03:44 64.40M 287005.1 horo EU-Свежеватель Душ
76 19 Apr 2012 03:44 63.38M 281948.7 Ecology2 EU-Kazzak
77 23 Apr 2012 03:45 64.24M 285394.6 Solidarity EU EU-Tarren Mill
78 06 May 2012 03:45 62.07M 275550.2 DarkStorm EU-Zenedar
79 01 Aug 2012 03:45 62.79M 278605.3 BrokenNew EU-Blackhand
80 01 Aug 2012 03:45 62.78M 278487.5 Whysosic EU-Blackhand
81 20 Aug 2012 03:46 62.04M 274070.7 Пчёлы EU-Свежеватель Душ
82 25 Apr 2012 03:46 64.18M 283389.3 Production Company US-Moonrunner
83 05 Jun 2012 03:46 63.79M 281310.5 echoes EU-Blackrock
84 12 Mar 2012 03:46 65.66M 289419.5 Blood Legion US-Illidan
85 27 May 2012 03:46 62.44M 275088.0 Final Destination EU-Термоштепсель
86 20 Mar 2012 03:47 65.35M 287113.7 Void US-Laughing Skull
87 27 Jul 2012 03:48 63.75M 279563.8 Бич с ЧШ EU-Король-лич
88 11 Mar 2012 03:48 62.69M 274404.3 Созвездие EU-Вечная Песня
89 09 Aug 2012 03:48 64.97M 284322.1 Справедливые EU-Термоштепсель
90 23 Aug 2012 03:48 61.91M 270795.0 Справедливые EU-Термоштепсель
91 16 Jan 2012 03:48 65.83M 287772.0 Интервенция EU-Свежеватель Душ
92 23 Apr 2012 03:48 63.37M 277008.5 Coon and friends US-Stormrage
93 23 Apr 2012 03:48 63.40M 277109.0 Xalance Logs US-Sargeras
94 23 Jul 2012 03:49 64.60M 281702.6 Avalon Tarde EU-Exodar
95 07 May 2012 03:49 62.92M 274281.2 The War Council US-Silver Hand
96 17 Mar 2012 03:49 62.23M 270949.7 Fresh Baked Puns US-Arygos
97 16 Aug 2012 03:49 63.06M 274460.3 Справедливые EU-Термоштепсель
98 30 Jul 2012 03:49 64.24M 279597.5 Cool Whip US-Caelestrasz
99 08 Mar 2012 03:49 63.20M 274959.1 Alucard Privat Log EU-Nera'thor
100 14 May 2012 03:49 65.65M 285505.4 РусЛегион EU-Гордунни

Please do not close the page with the ad you want to report.

I've posted a guide on how to report misbehaving ads on the forum. Please follow the instructions and help make the internet a safer place. Thanks for you time.